Wind_Speed
42 43 43 43 43 45 45 44 44 47 50 52 53 53 52 51 49 46 44 43 41 39 38 37 35 34 33 33 33 34 35 35 33 29 26 24 24 25 27 27 27 27 26 26 25 23 23 22 20 20 20 21 19 17 17 19 18 16 16 16 15 16 20 26 30 29 27 26 26 25 24 24 23 23 23 24 24 23 21 20 19 19 18 18 17 17 18
42 44 44 44 44 44 45 44 45 47 50 52 53 54 54 53 51 49 46 43 41 40 39 37 35 35 34 34 34 35 34 32 31 29 25 23 23 23 25 26 27 27 27 27 26 25 24 23 22 21 21 20 19 18 18 19 18 17 15 15 14 13 14 19 24 27 26 25 26 25 24 25 26 25 26 26 25 25 24 23 21 21 20 20 19 19 19
42 43 45 45 45 45 46 46 46 48 50 52 53 53 53 52 51 50 49 46 42 41 40 39 37 36 35 34 34 34 33 31 30 29 27 25 24 24 25 25 26 27 28 28 28 27 26 26 25 24 22 21 21 21 20 20 21 20 18 17 16 15 15 14 16 21 23 23 23 24 23 24 26 26 27 27 27 27 26 25 23 22 22 22 21 21 20
39 41 41 40 41 44 46 45 47 49 51 54 54 52 52 51 49 48 48 47 44 42 41 40 39 37 34 34 33 33 31 31 31 30 28 26 26 26 27 27 27 28 29 29 29 29 28 27 27 26 24 23 23 23 22 22 22 20 18 17 17 16 15 14 12 14 17 19 21 23 23 24 25 26 27 28 27 27 27 26 25 24 23 23 23 22 22
37 39 39 35 35 38 41 43 45 47 49 53 54 53 52 51 50 49 47 47 45 44 43 41 40 39 35 33 32 32 32 33 33 32 30 28 26 26 27 28 29 30 30 30 31 30 29 29 28 28 27 26 25 24 23 23 23 21 20 19 18 16 15 14 13 12 13 15 18 20 22 23 24 26 27 27 26 26 26 26 26 26 26 26 25 24 24
37 40 42 40 38 39 40 41 43 44 46 49 50 50 50 50 51 50 49 48 47 46 45 43 42 41 38 34 32 33 35 36 35 34 33 30 27 24 24 26 29 30 30 31 32 32 31 30 29 29 28 28 27 25 24 24 23 24 23 21 19 18 17 16 15 15 14 14 14 16 19 20 21 23 25 25 25 25 26 26 27 28 29 29 28 26 25
38 41 45 46 44 42 42 43 43 44 47 48 48 47 46 47 48 48 48 48 48 47 47 45 43 42 41 39 36 36 37 36 34 34 34 34 32 28 25 25 27 29 30 31 32 33 33 32 31 30 29 29 28 25 24 24 23 24 25 23 20 20 19 18 17 17 17 15 13 14 15 16 18 20 23 25 26 26 27 28 29 30 31 31 30 29 27
40 41 46 47 45 44 44 44 44 45 47 48 47 45 44 45 46 46 46 47 47 47 47 47 46 43 41 39 37 37 37 36 35 36 35 34 34 33 30 28 27 28 30 32 33 34 34 34 33 32 31 31 29 26 25 24 23 23 25 24 22 21 21 21 20 19 18 17 16 16 15 15 16 17 19 23 25 27 28 29 29 30 31 32 32 31 29
41 40 42 43 43 43 44 43 43 44 46 46 47 46 46 46 46 46 47 47 48 48 47 46 46 44 42 40 37 36 36 34 34 34 34 32 32 31 30 29 28 28 31 33 34 35 35 35 35 34 33 33 31 29 28 27 26 25 26 26 26 25 26 26 24 23 21 21 20 20 19 19 19 18 18 19 20 21 24 28 28 27 28 30 31 32 31
41 41 40 39 38 40 41 41 41 43 43 44 45 46 47 47 48 48 48 47 46 46 45 45 45 45 45 43 40 38 37 36 34 33 32 32 32 31 30 30 29 29 30 32 33 35 35 36 36 35 35 35 33 31 31 30 29 30 30 29 28 28 28 28 27 25 25 24 24 24 23 22 22 21 20 19 19 19 20 23 26 25 25 25 26 28 30
39 40 41 41 40 39 38 39 38 39 40 40 40 42 43 45 46 48 49 47 46 45 44 44 45 46 46 45 44 43 42 40 40 40 39 37 37 37 36 35 33 31 31 31 32 33 35 36 37 36 36 36 35 34 34 33 32 32 32 31 29 28 28 29 29 29 28 28 27 27 26 26 25 24 22 21 21 22 21 22 22 23 23 23 23 24 27
33 36 37 38 41 41 41 40 38 37 37 37 35 37 38 39 41 43 46 48 48 47 46 45 45 45 45 44 43 44 46 46 45 45 44 42 41 41 40 38 36 34 33 33 33 33 34 35 36 37 37 37 36 36 35 35 35 35 35 35 33 32 32 32 32 32 31 30 29 28 28 28 28 27 25 24 24 24 24 24 23 23 22 22 22 23 25
25 28 31 33 36 38 40 42 42 41 39 38 37 37 37 37 37 39 41 43 46 47 47 45 44 44 46 49 49 48 48 48 47 44 42 40 39 40 41 41 40 38 36 35 35 35 35 35 36 37 38 38 38 37 37 37 37 37 37 37 36 35 35 35 35 34 33 32 31 30 30 30 29 28 28 27 27 26 25 25 26 26 24 23 23 23 24
23 25 27 29 31 34 35 37 38 39 39 39 39 39 39 39 40 41 41 42 44 45 44 44 44 44 42 43 48 50 48 45 43 43 43 42 39 39 41 43 42 41 40 38 38 38 37 38 38 38 39 39 39 39 39 39 39 39 39 38 38 38 38 37 37 37 36 35 34 33 33 32 31 31 30 30 29 29 27 27 27 28 28 27 26 26 26
22 24 26 27 29 31 33 35 36 37 38 39 39 39 39 40 41 42 43 44 45 45 45 44 45 46 41 34 34 41 45 45 43 43 44 45 43 41 42 45 46 45 44 43 42 42 41 41 41 41 41 41 41 41 41 41 41 41 41 41 41 40 40 39 39 38 38 37 37 37 36 35 34 33 32 31 31 30 30 30 29 29 29 29 28 29 29
21 23 26 27 29 30 32 33 35 36 38 39 39 40 41 42 42 43 44 45 46 47 48 47 47 50 50 44 35 33 36 40 42 42 43 45 44 42 42 44 45 45 46 46 46 45 45 45 45 45 45 44 44 43 43 43 43 43 43 43 43 43 42 42 41 40 40 40 40 39 38 37 36 35 34 33 33 32 32 32 31 31 31 30 30 31 31
20 22 24 26 28 30 32 33 34 35 36 38 39 40 42 43 44 45 45 47 48 48 49 50 50 51 52 51 47 41 37 36 37 39 41 43 44 45 46 45 45 45 46 46 46 46 47 47 48 48 48 48 47 46 46 46 46 45 45 45 45 45 44 44 43 43 42 42 42 41 40 39 38 37 36 36 35 35 34 34 33 33 32 32 32 32 33
21 23 24 26 28 29 31 32 34 35 36 37 38 40 41 42 44 45 46 47 48 49 50 51 52 51 49 51 53 55 54 49 44 42 41 41 42 45 48 50 50 49 49 49 48 48 48 48 48 49 49 49 49 48 48 48 48 48 48 48 47 47 47 46 45 45 44 44 43 43 43 42 41 40 39 39 38 37 36 36 35 35 34 34 33 33 34
21 23 25 26 27 29 30 31 32 33 35 37 38 39 41 42 43 44 45 46 48 50 51 51 52 49 44 41 46 54 60 58 53 51 49 46 44 44 46 47 48 48 49 50 50 49 49 49 49 49 50 50 50 50 49 49 49 49 49 49 49 49 48 48 47 47 47 46 46 45 45 44 44 43 42 41 40 40 39 38 37 37 37 36 35 35 35
22 24 25 26 28 29 30 31 31 32 33 35 37 39 40 41 43 43 44 45 47 49 49 49 49 49 43 34 31 39 49 53 52 52 53 52 50 49 48 48 47 47 48 49 50 50 50 50 51 51 51 51 51 51 51 50 50 50 49 49 49 49 49 49 49 48 48 48 47 47 47 46 46 45 45 44 43 42 41 40 40 39 39 39 38 37 37
24 26 27 29 30 31 31 32 32 33 33 33 35 37 39 40 42 43 44 45 47 49 50 48 49 51 51 45 38 36 39 42 44 46 50 52 52 51 51 51 50 49 49 49 50 51 51 51 52 52 52 52 52 51 51 51 51 51 51 50 50 50 50 50 49 49 49 49 48 48 48 47 47 47 46 46 45 45 44 43 42 41 41 41 40 40 39
26 26 28 30 31 32 33 33 34 34 34 33 34 35 37 39 41 42 43 44 45 47 49 50 50 51 53 54 52 47 43 41 41 43 46 49 51 52 52 51 50 50 50 50 51 51 52 52 53 53 53 53 53 53 53 53 52 52 52 52 52 51 51 51 51 50 50 50 49 49 49 48 48 48 47 47 46 46 46 45 44 43 43 43 43 42 41
28 28 29 30 31 33 34 35 35 36 36 36 36 36 36 38 40 41 42 43 44 45 46 48 49 50 51 51 51 49 46 44 43 44 45 47 49 51 51 51 50 50 51 52 52 52 53 53 54 54 54 55 54 54 54 54 54 54 54 53 53 53 53 53 52 52 52 51 51 51 50 50 49 49 48 48 48 47 47 46 46 46 45 44 44 44 43
29 29 29 29 29 31 33 35 36 36 36 37 37 37 37 38 40 41 42 42 43 45 46 46 47 48 49 49 49 48 46 45 44 44 44 45 45 46 47 49 51 52 52 53 54 54 54 54 55 55 55 56 56 56 56 55 55 55 55 55 54 54 54 54 54 54 53 53 53 52 52 52 51 51 50 50 50 49 48 48 48 48 47 47 46 46 46
29 28 27 27 27 28 30 32 33 35 35 36 37 37 38 38 39 41 42 43 43 44 45 46 47 47 47 49 50 50 49 49 47 46 45 45 45 44 45 47 49 50 51 53 54 55 56 56 56 56 56 56 56 56 57 57 56 56 56 56 55 55 55 55 55 54 54 54 54 54 54 54 54 53 53 52 52 52 52 51 50 50 50 50 50 49 49
27 27 26 26 26 27 28 29 31 32 33 34 35 36 37 38 39 40 41 43 44 45 45 46 47 47 47 48 49 50 50 51 51 50 49 47 46 46 46 47 47 48 49 50 52 54 56 57 57 57 57 57 56 56 56 56 56 56 56 56 56 55 55 55 55 55 55 55 55 55 55 55 55 55 55 55 55 54 54 54 54 54 54 54 54 54 53
26 26 26 25 26 26 27 28 29 31 32 34 34 35 36 38 40 41 42 43 44 45 46 47 47 47 47 47 47 49 49 50 50 50 50 49 49 48 49 49 49 49 49 50 50 51 53 54 56 57 58 59 58 58 57 57 57 57 57 57 56 56 56 55 55 55 55 55 55 55 55 56 56 56 56 57 57 57 57 57 57 57 57 57 57 57 57
25 25 25 25 25 26 26 27 28 29 31 33 34 35 35 36 38 40 42 43 44 44 46 47 48 48 47 47 47 47 48 48 48 48 48 48 48 49 49 50 50 51 51 51 52 52 51 51 52 53 55 56 57 57 58 58 58 57 58 58 58 58 58 57 57 57 57 57 57 56 57 57 57 57 57 58 58 58 58 58 58 58 59 59 59 60 60
24 24 24 25 25 26 27 28 28 28 29 31 33 34 35 36 36 38 39 41 42 43 45 46 48 48 48 48 48 47 47 47 47 48 48 48 49 49 49 49 49 49 50 50 51 51 52 52 52 52 52 52 53 54 55 55 56 57 57 57 58 58 59 59 58 58 58 58 58 58 58 58 58 58 59 59 59 59 59 59 59 59 59 60 61 61 62
24 24 25 25 25 26 27 28 29 29 30 30 31 32 34 35 36 36 38 39 41 42 43 45 47 48 48 48 48 48 47 46 46 47 48 49 49 49 48 48 49 49 49 49 49 49 50 50 51 52 52 52 53 53 53 54 54 55 55 56 56 56 57 57 57 58 58 57 58 58 58 59 59 59 59 59 60 60 60 60 60 60 60 60 61 62 63
25 24 25 25 26 26 26 27 28 29 29 30 30 31 32 33 34 35 36 37 39 41 42 44 46 47 47 48 48 49 48 47 47 47 48 48 47 47 47 48 49 49 50 49 49 48 48 48 48 49 50 52 53 54 55 55 55 55 55 55 55 55 55 55 55 56 56 56 57 57 57 58 58 58 59 59 59 59 60 60 60 60 60 60 61 62 63
26 25 26 26 27 27 28 28 29 29 30 30 31 31 32 32 32 33 34 35 37 38 40 42 43 45 47 48 49 49 49 48 47 47 48 48 46 45 46 47 49 50 50 50 50 49 49 48 48 47 47 48 49 50 52 54 55 55 56 56 55 55 55 56 56 56 56 56 56 57 57 57 58 58 58 59 59 59 59 59 60 60 60 61 61 62 63
28 28 28 28 29 30 31 32 32 32 33 33 32 33 33 33 34 34 34 35 35 36 38 39 40 42 44 46 48 49 50 51 49 48 47 47 46 45 46 47 48 49 49 49 50 50 50 50 49 48 47 46 47 47 48 49 50 51 52 53 54 54 55 55 56 56 56 57 57 57 57 58 58 58 58 58 58 59 59 59 59 60 60 61 61 62 63
31 31 31 31 32 33 34 34 35 35 35 35 35 35 36 36 36 36 36 36 36 37 37 39 39 40 41 43 44 45 46 49 50 49 48 48 48 47 47 47 47 48 48 48 49 50 51 51 51 51 50 49 48 48 47 47 47 47 48 49 49 50 51 52 53 54 54 55 55 56 56 56 57 57 57 57 58 58 58 58 59 59 59 60 61 62 63
33 33 34 35 36 36 36 36 36 36 36 36 37 37 38 38 39 39 39 39 38 38 38 39 39 40 40 41 41 41 41 44 46 47 47 48 50 51 50 48 47 47 48 48 48 49 50 50 50 50 51 51 51 50 50 49 49 48 48 48 48 49 50 51 51 52 53 53 54 54 55 55 55 55 56 56 56 57 57 57 58 59 59 60 60 61 62
35 36 37 38 38 38 37 37 37 37 37 37 38 38 39 40 40 41 41 41 41 41 40 40 40 40 40 40 41 41 40 42 44 44 44 45 47 50 51 51 49 48 48 49 48 47 47 48 47 48 48 49 49 50 50 50 51 51 51 51 51 52 52 52 53 53 53 54 54 54 55 55 55 55 55 55 56 56 57 58 59 60 61 61 62 63 63
37 37 38 39 39 39 39 39 39 38 38 38 38 38 39 40 41 42 42 42 42 43 43 43 42 41 41 40 41 41 41 41 42 44 44 44 45 47 49 49 48 48 49 50 49 48 47 47 47 47 48 48 48 48 48 48 49 49 49 50 51 52 53 53 53 53 54 54 54 55 55 55 56 56 56 57 58 59 61 62 63 64 64 65 66 66 66
37 38 39 40 40 41 40 40 40 40 39 39 38 39 39 40 42 43 43 43 43 44 44 44 44 44 43 42 42 42 41 41 42 43 43 43 44 46 47 46 44 45 48 51 51 50 49 48 48 48 47 47 47 47 48 48 47 47 47 48 49 50 51 52 52 53 53 54 54 55 56 57 58 59 60 61 63 64 65 66 67 68 68 68 68 69 69
38 39 40 41 41 40 40 40 40 40 40 40 40 40 40 40 42 43 44 44 45 46 46 46 45 45 45 44 43 43 42 42 42 43 43 43 44 44 44 43 43 45 49 50 49 47 48 49 47 46 45 45 46 46 47 47 47 46 47 48 48 49 49 50 50 51 52 53 54 55 56 57 59 60 62 63 64 65 66 67 68 69 69 69 70 70 71
39 39 40 40 39 39 39 39 39 39 40 41 41 41 41 42 42 43 43 44 45 47 47 47 46 46 46 46 45 44 43 43 42 42 43 44 43 41 41 42 44 47 49 49 48 48 48 47 45 44 43 43 43 43 43 43 43 43 44 45 46 46 46 47 48 48 49 50 51 52 54 55 57 58 59 61 62 63 64 65 67 68 69 69 70 71 72
38 38 38 37 37 37 37 38 38 39 40 40 41 41 41 42 42 42 43 43 45 46 47 48 47 47 47 47 46 45 45 44 43 42 42 42 41 40 40 42 44 47 49 49 49 49 47 45 42 41 40 40 40 40 40 40 41 42 43 43 44 44 45 46 46 47 48 49 50 51 52 53 54 55 57 58 59 61 62 64 65 67 68 68 69 70 70
36 36 35 35 35 36 36 37 37 37 37 37 38 38 39 40 41 42 43 43 44 44 45 46 47 48 48 47 47 46 46 45 44 42 41 41 40 39 39 41 43 44 44 44 42 41 40 39 38 38 39 39 40 40 40 41 42 43 43 44 44 44 45 45 46 46 47 48 48 49 50 51 52 53 55 56 58 59 61 63 64 65 66 67 66 66 67
35 34 33 33 34 35 35 35 34 34 33 33 35 36 37 38 40 40 41 42 43 43 43 45 45 46 47 47 46 46 46 46 45 43 41 40 38 39 41 44 45 43 41 39 38 36 36 36 37 38 39 40 40 40 40 41 41 42 42 43 43 44 44 45 45 46 46 47 47 48 49 50 51 52 54 55 57 58 60 61 62 63 64 64 64 64 64
33 32 32 32 32 33 32 31 30 30 30 31 33 34 34 35 35 36 37 38 39 39 40 42 42 43 43 44 44 44 45 45 44 42 38 37 38 40 43 45 44 40 37 36 36 35 34 34 36 37 38 39 39 39 40 40 41 41 42 42 43 44 44 44 45 45 45 46 46 47 48 48 49 51 52 54 55 57 58 59 60 61 62 62 62 61 60
30 30 30 30 30 30 28 27 27 28 29 31 31 31 30 29 30 31 32 33 33 34 35 37 38 38 38 38 38 39 41 43 43 40 37 37 39 42 43 43 42 39 37 36 36 35 35 35 35 35 36 38 39 40 41 41 42 43 43 44 44 44 44 44 44 44 45 45 45 46 47 47 48 49 51 53 55 56 57 58 59 60 60 59 58 56 55
28 28 29 29 27 26 24 24 25 27 27 27 26 25 24 25 26 26 25 24 24 25 28 30 32 33 32 30 30 32 35 37 39 39 38 39 41 43 43 43 42 41 39 38 38 37 37 37 37 37 38 38 39 40 41 42 42 43 43 43 43 43 43 43 44 44 44 44 44 44 45 46 48 49 51 53 54 56 56 57 57 56 55 54 52 51 51
26 27 27 26 23 21 21 22 23 22 21 20 19 18 18 18 16 15 14 15 16 17 20 24 26 29 30 30 30 32 34 35 36 37 38 39 41 42 43 42 42 42 41 40 40 39 39 39 38 38 39 39 39 40 40 41 41 41 42 42 42 42 43 43 43 42 41 41 42 44 46 47 49 50 52 53 53 54 55 54 53 51 50 49 49 49 50
25 26 25 23 19 18 19 20 19 17 15 14 13 11 9 6 3 4 6 8 9 12 17 20 21 22 25 27 29 31 31 32 32 35 36 37 39 42 42 42 42 42 42 40 39 38 38 38 37 38 38 38 38 39 39 40 40 41 41 42 42 42 42 42 42 42 42 44 46 48 49 51 51 51 51 52 52 52 51 50 48 47 47 47 48 49 49
24 24 22 19 16 16 17 17 15 13 11 10 8 6 4 1 3 5 6 6 6 9 14 20 21 21 21 23 25 28 30 32 33 35 37 38 39 40 39 36 35 35 34 33 33 34 35 35 36 37 38 38 38 39 39 39 40 40 41 41 42 42 42 43 44 45 47 48 50 51 51 51 50 50 50 51 51 49 47 46 45 45 45 46 47 47 47
23 22 19 16 15 15 15 14 13 11 9 8 8 6 3 1 2 5 7 9 9 9 11 17 21 22 20 19 20 23 26 29 32 34 36 36 36 36 34 30 28 28 29 29 30 30 31 32 33 34 35 36 36 37 37 38 38 39 40 40 41 42 43 45 47 48 50 50 51 51 50 49 48 48 49 49 48 46 44 43 43 44 45 45 45 44 44
22 19 15 14 13 13 13 12 11 9 7 7 7 7 5 3 2 2 4 9 12 12 11 13 18 21 21 19 19 19 19 21 23 25 26 27 27 28 27 27 27 28 29 30 30 30 30 31 32 32 33 34 35 36 37 38 38 39 40 41 42 44 46 48 50 51 51 51 51 50 48 47 47 47 47 46 44 43 42 42 42 43 44 44 43 43 43
21 17 13 11 11 11 11 11 10 7 6 5 5 5 6 6 5 3 2 4 10 12 12 11 13 16 18 19 18 17 16 16 17 18 18 19 20 21 23 24 26 27 28 29 30 31 32 33 34 35 35 36 37 38 39 39 40 41 43 44 46 48 49 50 51 51 52 51 50 48 46 45 45 45 44 42 41 40 40 41 41 42 42 41 41 42 42
Wind_Direction
202 201 201 204 205 205 206 205 205 206 208 211 215 216 217 219 220 222 224 225 226 227 228 228 227 229 229 230 230 229 228 228 227 225 222 221 221 221 222 226 229 232 234 236 235 228 224 224 221 219 224 227 225 223 228 234 233 230 229 229 230 232 231 228 224 219 218 222 222 222 224 224 222 222 222 221 221 223 224 223 221 222 225 227 229 232 234
201 203 201 202 205 209 208 206 206 207 210 213 215 218 219 220 221 223 223 224 225 227 228 227 226 226 227 227 226 226 225 226 224 221 218 216 216 216 217 221 225 229 233 235 236 232 226 223 223 223 225 228 229 231 235 238 236 234 234 235 240 240 236 234 227 219 217 219 220 220 223 224 224 224 224 223 222 222 224 226 225 225 227 229 230 232 235
203 206 204 201 202 207 209 208 207 207 210 214 217 218 220 220 221 222 223 223 224 226 228 227 225 226 226 227 227 227 226 225 223 223 224 223 220 218 220 222 223 227 231 233 234 232 228 224 224 225 227 228 229 231 235 239 244 249 248 247 248 239 227 229 229 223 220 219 219 221 222 222 223 225 227 227 226 225 225 226 228 230 232 234 234 234 235
206 210 212 208 204 205 207 209 211 210 209 213 217 220 221 222 221 222 223 224 224 224 226 226 225 226 226 227 229 231 230 227 225 226 227 226 223 221 222 223 224 225 227 230 232 232 229 227 227 228 229 229 228 229 233 237 241 244 243 242 241 232 221 223 229 227 223 221 223 225 223 222 223 227 231 232 230 229 228 229 230 233 236 239 239 238 238
206 210 216 216 209 207 208 212 217 217 214 213 215 218 221 223 224 224 224 225 225 224 224 225 226 227 227 226 228 231 232 230 228 228 228 227 225 223 222 223 225 226 227 228 230 230 229 228 228 228 228 229 229 229 233 236 234 231 231 232 232 232 231 233 234 232 227 225 227 228 226 226 227 230 234 235 234 233 231 230 231 234 237 240 241 241 241
209 208 215 219 215 212 213 215 218 223 223 220 219 219 219 221 224 225 226 227 227 226 226 226 227 229 229 227 225 228 231 232 232 231 230 228 226 225 225 225 226 226 227 228 229 230 230 229 229 230 230 232 231 230 232 235 232 227 227 229 234 238 240 239 237 236 235 233 233 232 230 231 232 234 235 236 236 235 234 233 232 233 235 237 239 241 242
216 209 210 214 212 209 212 215 217 222 226 226 225 224 221 221 223 225 227 228 230 230 230 230 231 232 232 231 229 229 232 235 236 236 235 232 231 231 231 230 229 228 228 228 229 229 230 230 229 230 231 234 234 232 233 236 235 230 226 228 233 238 240 240 239 238 237 237 238 239 237 236 237 238 239 239 240 239 239 238 236 234 235 235 236 239 242
223 214 207 206 207 207 209 212 215 220 226 229 229 228 226 224 224 226 227 228 230 231 232 232 232 233 234 235 236 236 237 240 241 239 236 235 235 237 238 237 234 231 229 228 229 229 230 230 230 230 231 233 233 232 232 234 236 232 227 228 232 237 240 243 244 242 241 240 241 243 243 241 243 244 242 242 242 242 243 243 241 239 239 238 237 237 240
229 225 214 206 204 205 207 210 213 217 222 226 228 229 228 226 225 227 228 229 229 229 230 232 232 233 236 238 239 240 241 241 238 235 234 235 236 238 240 240 237 233 230 229 229 230 230 231 231 231 232 234 234 233 233 233 233 232 231 235 241 244 246 247 245 244 244 245 245 246 247 245 245 247 248 246 245 245 245 244 243 242 241 241 239 238 239
233 235 232 222 213 206 204 206 211 214 217 221 223 226 229 229 228 227 227 228 228 228 229 231 232 234 236 238 239 240 241 239 236 236 238 241 242 243 244 244 242 237 234 231 230 230 231 232 232 232 233 235 235 235 234 234 233 233 235 239 245 246 246 244 243 245 248 249 247 247 248 247 247 249 252 252 251 250 248 246 245 244 242 242 242 241 241
234 239 242 241 236 226 213 208 209 210 213 216 217 220 226 229 230 229 229 228 229 230 230 230 231 233 235 237 239 242 244 244 244 245 246 247 249 251 251 250 247 243 240 236 233 232 232 233 235 235 235 236 236 236 235 235 234 234 234 237 240 241 239 241 246 250 253 252 249 247 248 249 250 251 252 251 251 250 249 248 248 247 246 248 249 247 246
235 238 242 245 247 245 237 232 229 225 221 220 219 220 222 225 227 229 229 230 232 232 232 232 232 234 236 238 241 243 246 248 250 250 249 249 251 252 250 248 245 242 239 237 235 234 233 234 236 237 238 238 238 237 237 236 236 236 236 237 238 237 237 242 248 252 253 253 251 250 250 251 253 254 254 253 251 250 248 247 247 248 249 253 257 257 255
239 239 240 242 246 249 249 249 250 249 246 243 241 237 232 229 230 231 230 231 233 234 235 235 235 237 239 240 241 241 241 244 245 246 246 245 245 245 245 243 241 237 234 232 232 232 233 234 235 237 239 240 240 240 239 239 239 239 240 240 240 239 239 242 246 248 250 251 252 252 252 253 254 255 256 255 254 252 249 247 246 247 248 250 254 256 256
243 242 242 242 243 245 248 250 252 254 254 252 250 249 246 242 241 240 236 235 235 236 237 236 236 238 239 237 235 234 234 235 238 241 241 239 237 236 237 237 236 234 232 230 229 229 231 233 234 235 237 240 241 242 242 242 243 243 244 244 244 243 242 243 244 246 248 249 251 252 253 253 254 255 256 256 256 255 253 250 247 247 248 248 250 252 253
243 244 244 244 243 244 245 247 248 249 249 249 249 250 249 246 244 242 241 239 238 238 238 237 235 235 235 233 230 228 228 231 235 238 239 239 237 234 232 231 232 232 232 231 231 230 230 232 233 234 235 237 239 241 243 243 244 245 246 247 247 246 246 245 246 247 248 249 251 252 252 253 254 255 254 254 254 255 256 253 250 248 248 249 250 252 254
243 244 244 244 244 244 244 245 246 246 247 248 248 248 246 245 243 242 242 241 239 238 238 238 237 236 238 240 240 233 226 227 231 232 233 234 234 231 227 227 229 231 233 234 234 234 234 234 234 234 234 235 237 239 241 242 243 244 245 246 247 248 248 248 248 248 249 250 251 252 252 253 253 253 253 253 253 254 256 256 254 252 251 250 251 251 253
247 246 246 245 245 244 244 244 244 244 245 245 245 245 244 244 242 240 239 239 240 240 239 239 240 240 242 244 244 240 236 235 234 232 231 232 233 233 231 231 232 233 235 236 236 236 236 236 235 235 235 235 236 237 238 240 242 243 243 245 246 247 248 249 249 250 250 251 252 253 254 254 253 253 253 254 254 255 256 256 256 256 255 253 253 253 253
253 252 250 248 247 246 245 244 244 244 243 243 243 243 243 243 242 241 239 238 239 240 241 241 241 243 246 249 249 248 248 248 244 241 239 236 235 235 235 235 235 236 236 237 237 238 238 238 238 237 236 236 236 236 237 238 239 241 242 243 244 246 247 248 249 251 251 252 252 253 254 255 255 255 255 255 255 256 257 257 257 258 257 256 255 254 254
263 259 256 254 253 251 249 248 246 245 244 243 242 241 241 241 241 241 240 238 237 238 239 239 239 239 242 247 250 250 250 249 246 243 242 241 238 236 235 235 234 234 235 236 237 237 237 238 238 238 238 237 236 236 237 237 238 239 241 242 244 245 246 247 248 249 251 252 252 253 254 255 256 257 257 257 257 256 257 257 257 257 257 257 256 254 254
271 267 263 259 256 254 252 251 249 247 246 245 244 243 242 241 240 240 240 239 238 238 239 239 237 233 230 232 239 243 245 245 243 241 241 241 239 237 237 237 238 238 238 238 237 236 236 236 236 237 238 239 238 238 238 238 239 239 240 242 243 244 245 246 247 248 249 250 252 253 254 254 255 256 257 257 257 257 257 256 256 256 256 256 255 254 253
276 272 269 265 261 257 254 252 251 249 247 247 247 246 244 243 242 241 240 239 238 239 240 240 238 234 230 231 236 240 241 241 240 239 239 239 238 238 237 238 239 240 239 238 237 237 236 235 236 237 238 239 240 240 240 240 240 240 240 241 242 243 245 246 246 247 248 249 250 251 252 253 254 255 255 256 257 257 257 257 256 256 256 256 256 255 254
279 276 273 270 266 263 259 255 252 250 249 249 249 249 248 247 245 243 242 241 240 239 240 240 239 238 237 238 242 245 246 242 240 239 238 237 236 236 236 237 237 237 236 236 236 237 237 237 237 237 238 239 240 241 241 242 241 241 241 241 241 242 243 245 245 246 247 248 249 249 250 251 252 253 254 255 255 256 256 257 256 256 256 256 256 256 255
283 280 276 273 269 265 263 260 256 253 251 250 250 249 249 249 248 246 245 243 242 241 241 240 240 240 240 242 244 246 245 243 241 240 238 237 236 236 236 236 236 235 235 235 236 237 238 238 239 239 239 240 241 242 243 243 243 243 243 242 242 242 242 243 244 245 246 246 247 248 248 249 250 250 251 252 253 254 255 256 257 257 257 256 257 257 257
284 282 279 276 271 267 265 263 261 258 255 253 251 250 248 247 247 247 246 245 244 244 243 242 240 239 239 240 241 243 243 243 242 241 240 239 238 237 237 236 236 235 235 236 236 237 237 238 240 240 241 241 242 243 244 244 244 245 245 245 245 245 244 244 245 245 245 246 246 247 248 248 249 249 250 251 251 252 253 255 256 258 258 258 258 258 259
285 282 279 275 271 268 265 264 263 262 259 256 254 252 249 247 245 245 246 246 246 246 245 244 243 241 240 239 239 240 241 242 243 243 242 241 239 238 238 237 237 237 237 237 237 238 238 239 240 241 241 242 243 243 244 245 246 247 247 247 247 247 247 247 247 247 247 247 247 248 248 249 249 250 250 251 252 253 254 254 255 256 258 259 260 260 260
284 281 277 273 270 268 266 264 263 263 262 259 256 253 250 248 246 245 245 246 246 246 246 246 245 244 243 241 240 240 240 241 242 243 244 243 243 242 241 241 240 240 239 239 239 239 240 240 241 242 242 243 244 244 245 246 246 247 248 249 249 249 249 250 250 250 250 250 250 250 250 251 251 252 252 252 253 254 256 256 257 257 258 259 259 260 260
282 279 276 274 272 270 268 267 265 264 263 262 260 257 253 249 247 247 246 246 246 246 246 246 246 245 245 244 243 242 241 241 242 242 243 244 245 245 245 244 243 242 242 241 241 240 240 241 241 242 243 244 244 245 246 246 247 247 248 249 249 250 250 250 251 251 252 252 252 252 253 253 253 253 254 254 254 255 255 257 258 258 258 259 259 259 259
283 279 277 275 274 273 272 270 267 265 264 264 263 262 259 254 251 249 249 248 246 245 246 247 247 246 246 245 245 244 243 243 243 243 243 243 244 245 245 245 245 245 244 244 243 242 242 242 241 242 243 244 244 245 245 246 246 247 247 248 249 250 251 251 252 252 253 253 254 254 254 254 254 255 255 255 255 256 256 256 256 257 258 258 258 258 258
286 282 279 277 275 275 274 272 269 267 265 264 264 264 262 260 256 253 251 249 247 245 244 245 246 247 247 247 247 246 245 245 244 244 243 243 243 244 244 245 245 246 246 246 246 245 244 244 244 244 244 244 245 246 246 246 247 247 247 247 248 249 250 251 252 252 253 253 253 254 254 254 254 255 255 255 255 256 256 256 256 256 256 256 257 258 258
288 284 281 279 278 277 276 274 273 271 269 266 264 263 262 261 260 257 253 251 248 246 244 244 244 245 246 247 248 248 247 246 246 245 244 243 243 243 244 245 246 247 247 247 248 248 247 247 246 246 245 245 246 246 247 247 248 248 248 248 248 248 249 250 251 251 252 252 252 253 253 253 254 254 255 255 255 255 255 255 255 255 255 255 255 256 257
287 284 281 280 279 278 276 275 275 274 272 269 266 264 262 261 260 259 257 254 251 248 246 244 244 245 244 245 247 247 246 246 246 246 245 245 244 244 245 246 247 247 248 248 249 249 249 248 247 247 246 246 246 246 247 247 248 248 249 249 249 249 249 250 250 251 251 251 252 252 253 253 253 254 254 254 255 255 255 255 255 255 255 255 254 254 254
284 284 282 280 279 278 277 276 275 274 273 271 268 265 263 260 258 258 258 257 255 252 250 248 247 246 245 244 246 246 244 244 246 246 246 246 246 246 246 247 248 248 248 248 249 249 249 249 249 248 247 247 247 247 247 247 248 249 249 250 250 251 251 251 251 252 252 252 253 253 253 254 254 255 255 255 256 256 256 256 256 256 256 256 256 255 255
284 284 283 282 281 281 280 279 277 275 273 271 269 266 263 261 259 257 256 256 255 254 253 251 249 248 247 246 246 246 245 243 244 244 245 245 247 248 248 249 249 250 249 249 249 249 249 249 249 249 249 249 248 248 248 248 248 249 249 250 251 252 252 253 253 253 253 254 254 254 255 255 256 256 257 257 257 258 258 258 258 258 258 257 257 257 257
284 284 284 284 284 284 282 280 278 277 274 272 270 267 265 262 260 258 256 255 254 253 253 252 251 250 250 249 247 247 246 245 245 244 244 245 247 247 247 247 249 251 251 251 250 250 250 250 250 250 250 249 249 249 249 249 249 250 250 251 252 253 254 254 255 255 255 256 256 256 257 257 257 258 258 259 259 259 259 259 259 259 259 259 259 259 259
284 284 284 285 285 284 283 281 278 276 275 272 270 268 265 263 261 259 257 256 254 253 252 251 250 250 250 250 249 247 245 245 246 246 244 244 244 244 243 243 246 249 251 251 251 251 251 251 251 251 251 251 250 250 250 251 251 252 252 253 254 255 255 256 257 257 257 258 258 259 259 259 260 260 260 260 260 260 260 261 261 261 261 261 261 261 261
285 285 285 286 286 285 283 282 279 277 274 272 269 268 266 264 262 260 259 257 256 254 253 252 250 249 248 248 248 246 243 242 244 245 244 243 243 243 243 242 242 245 248 250 250 250 250 251 251 252 252 252 252 252 252 252 252 253 254 255 256 257 258 258 258 259 259 260 260 261 261 262 262 262 262 262 262 263 263 263 264 264 264 265 265 264 264
287 286 286 286 287 286 285 283 281 278 275 272 269 267 266 265 263 262 260 258 256 255 254 252 251 250 248 247 247 246 244 242 242 244 245 245 245 245 245 244 243 243 246 249 250 250 250 250 250 250 251 252 252 253 253 254 254 254 254 255 256 257 258 259 259 260 260 260 261 261 262 262 262 263 263 264 265 266 266 267 268 268 269 269 269 268 267
289 288 288 287 287 286 284 283 281 279 276 274 271 268 266 264 263 262 261 259 257 255 253 252 251 250 248 247 246 246 245 244 243 242 244 246 247 247 247 246 244 243 246 249 251 251 250 250 249 250 250 251 252 253 254 255 255 256 256 257 257 258 258 259 259 260 260 261 261 262 263 263 264 264 265 266 267 268 269 270 270 271 271 271 270 270 269
290 290 289 288 287 286 284 282 281 279 278 276 274 271 268 265 263 261 259 258 257 255 253 252 250 249 248 247 246 246 245 244 243 243 243 245 247 248 248 247 246 248 250 251 251 251 249 248 247 248 249 251 252 253 253 255 256 256 257 258 258 259 260 260 261 261 262 263 264 264 265 266 266 267 268 269 270 270 271 272 272 272 272 272 272 271 271
292 291 290 289 288 287 285 284 282 281 280 278 277 275 272 269 265 262 259 256 255 254 253 251 250 248 247 246 245 244 244 244 243 242 243 244 245 247 247 247 248 251 252 251 250 249 247 244 244 245 247 248 250 251 252 254 255 255 256 257 258 259 260 261 262 263 264 265 266 266 267 268 268 269 270 270 271 272 272 273 273 273 273 273 273 273 273
292 292 291 290 289 288 286 285 284 283 282 280 278 276 273 271 268 264 261 257 253 251 250 249 248 247 246 244 243 242 242 243 242 242 243 243 244 245 246 248 249 249 248 246 245 243 240 238 238 241 243 246 248 250 251 253 254 255 256 257 258 259 260 261 262 264 265 266 267 268 268 269 270 271 272 273 273 274 274 274 274 274 274 274 274 274 273
295 295 294 293 291 290 288 287 286 284 282 280 277 275 273 271 268 266 263 259 255 252 249 247 245 244 243 242 241 240 240 241 241 241 242 242 242 243 246 248 246 243 241 239 239 238 237 237 239 243 246 248 251 252 253 254 254 255 256 257 258 259 260 261 263 264 265 267 268 269 271 272 273 274 275 276 276 276 276 276 276 276 276 275 275 274 273
299 299 297 295 293 292 291 290 288 285 282 280 278 276 275 273 271 268 264 260 257 252 248 245 243 242 240 240 239 237 237 238 239 240 240 241 240 241 244 246 243 238 236 238 242 244 245 245 246 247 249 251 252 252 253 254 255 256 257 258 259 260 261 263 264 266 267 269 270 272 274 275 276 276 277 277 278 278 278 278 278 277 277 276 276 275 274
302 300 299 297 296 295 293 291 288 286 285 284 283 282 280 276 273 270 266 261 256 252 247 243 240 239 238 238 237 235 235 236 237 237 238 239 240 240 243 245 244 241 242 245 248 248 249 249 249 249 249 250 251 252 254 255 256 257 259 260 261 262 264 265 267 268 269 271 272 273 274 275 276 276 277 278 278 278 279 279 279 279 278 278 277 277 276
304 303 302 301 300 297 294 291 290 291 291 291 290 287 283 277 274 272 269 262 254 247 242 237 235 234 235 235 235 234 234 234 235 233 231 232 235 238 241 243 245 246 249 251 251 249 248 249 250 252 252 252 253 254 255 256 257 259 260 261 263 264 265 267 268 269 270 271 271 272 273 274 275 277 277 278 279 279 280 280 280 280 280 279 278 277 276
307 306 306 305 302 298 295 295 297 298 298 296 293 290 286 282 279 276 269 256 244 236 232 230 227 225 225 226 228 230 232 233 232 230 228 229 233 237 240 243 245 248 250 251 250 248 248 250 253 256 257 256 256 256 257 258 259 260 261 262 263 264 265 267 267 268 269 270 272 274 276 277 278 278 278 279 279 280 281 281 281 280 278 278 277 277 276
311 311 311 308 303 300 302 303 304 305 305 303 300 298 295 290 282 270 249 231 222 221 222 221 219 217 215 214 216 222 228 230 229 228 229 232 235 239 241 244 246 249 251 251 250 250 251 252 254 255 255 255 256 257 258 259 260 261 261 262 263 263 264 264 265 266 269 273 276 279 280 280 279 279 279 280 281 282 283 282 280 278 277 277 277 277 277
315 315 314 310 304 305 309 309 309 312 316 314 310 312 312 297 256 200 190 199 209 210 207 204 204 208 212 213 215 220 225 227 226 227 230 234 238 241 243 245 247 248 249 248 248 249 250 251 251 252 253 255 256 257 258 258 259 259 260 260 261 261 262 262 264 267 272 277 280 282 282 280 280 280 280 282 283 284 283 281 279 277 277 278 278 278 278
320 319 316 309 304 308 313 312 311 315 320 317 316 330 348 276 193 177 172 186 209 211 203 199 198 202 206 211 217 223 226 227 229 232 234 234 236 238 240 242 243 243 244 245 246 248 249 250 251 252 254 256 257 257 258 258 257 257 258 259 260 261 262 264 267 271 275 279 281 282 281 280 280 281 282 283 284 284 281 279 278 278 279 279 280 280 279
324 322 317 308 305 310 317 316 312 312 312 308 305 315 339 333 213 207 204 206 207 203 200 205 211 214 215 218 222 224 223 222 225 229 231 230 230 231 233 238 243 245 247 248 250 250 251 252 253 254 255 257 258 258 259 258 258 259 260 261 262 264 266 268 271 275 277 279 281 281 281 281 281 281 283 284 283 282 280 279 280 281 281 281 281 281 280
328 326 318 311 308 312 319 321 317 314 316 315 306 300 300 305 306 265 228 220 216 212 207 208 213 218 224 229 230 227 223 222 224 228 230 230 228 228 230 235 241 243 245 247 249 250 251 253 254 255 256 257 258 258 259 260 261 262 263 264 266 268 270 272 274 276 277 279 280 281 280 280 281 282 283 282 281 280 280 281 282 282 283 282 282 281 281
334 330 322 314 311 313 318 323 322 317 315 318 316 309 307 309 316 329 308 229 226 231 237 234 223 223 231 239 243 245 246 247 246 247 247 246 243 240 240 242 244 246 248 249 250 251 253 255 256 257 259 259 260 261 261 262 263 264 266 267 269 271 272 273 275 276 278 279 279 278 279 280 281 282 281 279 279 280 282 283 283 284 283 283 282 282 282
Height
5798 5800 5802 5806 5810 5812 5815 5819 5823 5825 5827 5829 5831 5833 5836 5838 5840 5842 5845 5848 5851 5853 5856 5858 5861 5863 5866 5868 5870 5871 5872 5873 5875 5878 5880 5883 5884 5886 5887 5887 5888 5890 5892 5894 5895 5897 5899 5900 5901 5903 5904 5905 5907 5909 5909 5909 5910 5911 5912 5912 5913 5914 5913 5913 5914 5916 5918 5921 5923 5925 5926 5928 5929 5930 5932 5933 5934 5935 5937 5938 5939 5939 5940 5941 5942 5943 5944
5796 5798 5801 5804 5808 5811 5814 5818 5821 5823 5825 5826 5828 5831 5833 5835 5838 5840 5843 5846 5848 5851 5853 5856 5858 5860 5863 5865 5866 5868 5869 5871 5873 5875 5877 5880 5882 5883 5884 5885 5886 5887 5889 5890 5892 5894 5897 5898 5899 5901 5902 5903 5905 5906 5907 5908 5908 5909 5910 5911 5912 5913 5913 5914 5914 5915 5916 5918 5920 5922 5923 5925 5926 5927 5929 5930 5931 5932 5934 5936 5937 5937 5938 5939 5940 5941 5941
5794 5796 5798 5801 5805 5808 5811 5815 5818 5820 5823 5824 5826 5828 5830 5833 5835 5838 5840 5843 5846 5848 5851 5854 5856 5858 5860 5863 5864 5865 5867 5869 5871 5872 5875 5877 5879 5880 5882 5883 5884 5885 5886 5887 5889 5891 5894 5896 5898 5899 5900 5902 5903 5904 5905 5906 5906 5907 5908 5909 5910 5911 5912 5913 5914 5915 5915 5916 5917 5918 5920 5922 5924 5925 5926 5928 5928 5930 5931 5933 5934 5935 5936 5937 5938 5939 5939
5792 5795 5797 5799 5802 5805 5809 5812 5814 5816 5819 5821 5823 5825 5828 5830 5833 5836 5838 5841 5844 5847 5849 5851 5854 5856 5859 5861 5863 5864 5865 5866 5868 5870 5871 5873 5875 5877 5878 5880 5881 5882 5883 5885 5886 5889 5891 5893 5895 5897 5899 5900 5901 5902 5903 5904 5905 5906 5907 5908 5909 5910 5911 5912 5912 5913 5913 5914 5915 5916 5917 5919 5922 5923 5924 5926 5927 5928 5929 5931 5932 5933 5934 5935 5936 5937 5938
5790 5793 5795 5798 5801 5804 5807 5809 5812 5814 5815 5817 5819 5822 5825 5827 5830 5833 5836 5838 5841 5844 5846 5849 5851 5853 5856 5859 5860 5861 5862 5863 5865 5866 5868 5870 5872 5873 5875 5876 5878 5879 5880 5882 5883 5885 5887 5890 5891 5893 5896 5898 5899 5900 5901 5902 5903 5905 5907 5908 5909 5910 5910 5911 5910 5910 5911 5912 5913 5914 5915 5917 5919 5921 5922 5923 5925 5927 5928 5929 5930 5930 5931 5933 5934 5935 5935
5790 5792 5794 5796 5798 5801 5803 5806 5809 5812 5812 5813 5816 5819 5821 5824 5827 5831 5833 5836 5838 5841 5844 5847 5849 5851 5853 5856 5857 5858 5858 5860 5862 5864 5866 5868 5869 5871 5872 5874 5875 5877 5878 5879 5880 5882 5884 5886 5888 5890 5892 5894 5896 5897 5899 5899 5900 5902 5904 5905 5906 5907 5907 5908 5909 5909 5910 5910 5911 5912 5913 5915 5917 5919 5919 5920 5922 5924 5926 5927 5927 5927 5928 5929 5931 5932 5933
5789 5790 5792 5793 5794 5796 5799 5803 5807 5808 5809 5810 5812 5816 5819 5821 5824 5828 5831 5833 5836 5839 5842 5844 5846 5848 5850 5852 5854 5855 5855 5857 5859 5862 5863 5865 5867 5868 5869 5871 5873 5874 5876 5876 5877 5879 5881 5883 5885 5887 5889 5890 5891 5894 5895 5896 5897 5899 5900 5901 5902 5903 5904 5905 5907 5908 5908 5909 5909 5910 5912 5913 5915 5916 5917 5918 5919 5921 5923 5924 5924 5924 5925 5926 5928 5929 5930
5786 5788 5788 5789 5791 5794 5798 5801 5803 5805 5806 5808 5810 5813 5816 5818 5822 5825 5828 5830 5833 5835 5838 5841 5843 5845 5847 5849 5850 5852 5853 5855 5857 5859 5861 5863 5864 5865 5866 5868 5870 5871 5873 5873 5874 5876 5877 5880 5882 5884 5885 5886 5888 5891 5892 5893 5894 5896 5897 5898 5900 5901 5902 5903 5904 5905 5906 5907 5908 5909 5910 5912 5913 5914 5916 5917 5917 5918 5919 5920 5921 5921 5922 5924 5925 5926 5927
5784 5785 5786 5787 5789 5792 5795 5797 5798 5800 5802 5804 5807 5809 5811 5814 5818 5821 5824 5827 5829 5831 5834 5837 5839 5841 5843 5845 5847 5848 5850 5852 5854 5856 5858 5860 5861 5862 5864 5865 5866 5868 5869 5870 5871 5873 5874 5876 5878 5880 5882 5884 5886 5888 5890 5891 5892 5894 5895 5896 5897 5898 5899 5901 5902 5903 5904 5905 5907 5908 5909 5910 5911 5912 5913 5914 5915 5916 5916 5917 5918 5919 5920 5921 5922 5923 5924
5782 5782 5783 5785 5787 5788 5791 5793 5795 5796 5798 5800 5802 5805 5807 5810 5814 5817 5820 5823 5825 5828 5831 5833 5836 5837 5839 5841 5844 5845 5847 5849 5851 5853 5855 5856 5857 5859 5861 5862 5863 5864 5865 5866 5868 5870 5871 5872 5874 5876 5878 5880 5882 5885 5887 5888 5890 5891 5892 5893 5894 5895 5896 5897 5899 5901 5902 5903 5904 5905 5906 5907 5908 5909 5911 5912 5913 5914 5914 5914 5914 5916 5918 5919 5920 5921 5921
5780 5780 5781 5783 5784 5786 5788 5790 5791 5793 5794 5795 5798 5802 5803 5807 5810 5814 5817 5819 5821 5824 5827 5829 5831 5833 5834 5837 5840 5841 5842 5844 5846 5849 5850 5852 5853 5855 5856 5857 5859 5860 5862 5863 5865 5866 5868 5869 5870 5872 5874 5876 5878 5880 5882 5884 5886 5888 5889 5890 5891 5892 5893 5894 5895 5897 5899 5900 5901 5903 5903 5904 5905 5907 5908 5909 5911 5912 5912 5912 5912 5913 5914 5915 5916 5917 5917
5778 5779 5780 5780 5781 5783 5785 5786 5787 5789 5791 5793 5796 5799 5800 5803 5806 5809 5812 5815 5817 5819 5821 5824 5826 5828 5830 5832 5833 5834 5836 5838 5840 5842 5844 5846 5848 5849 5851 5853 5854 5856 5858 5859 5861 5863 5864 5865 5866 5867 5869 5871 5873 5876 5878 5880 5882 5884 5885 5887 5888 5890 5891 5891 5892 5893 5895 5896 5898 5899 5900 5901 5902 5903 5905 5906 5908 5909 5910 5910 5910 5911 5912 5913 5913 5914 5914
5775 5777 5778 5778 5779 5780 5781 5782 5783 5785 5787 5790 5793 5794 5797 5800 5802 5804 5807 5809 5810 5812 5815 5818 5821 5823 5825 5826 5827 5827 5829 5831 5833 5834 5837 5840 5842 5844 5846 5848 5850 5851 5853 5855 5856 5858 5860 5862 5863 5864 5865 5866 5868 5870 5873 5875 5877 5879 5881 5883 5884 5886 5887 5888 5889 5890 5891 5892 5893 5895 5896 5897 5898 5899 5901 5902 5903 5905 5906 5907 5908 5908 5910 5910 5911 5911 5912
5773 5774 5775 5776 5777 5777 5778 5779 5780 5782 5784 5785 5786 5788 5793 5796 5798 5799 5802 5804 5805 5808 5810 5813 5816 5819 5819 5819 5819 5820 5822 5824 5826 5828 5830 5833 5836 5839 5841 5843 5844 5846 5847 5849 5851 5853 5855 5857 5859 5860 5861 5862 5863 5865 5868 5870 5872 5874 5876 5877 5879 5881 5882 5884 5885 5886 5888 5889 5890 5891 5892 5893 5894 5895 5896 5897 5899 5900 5901 5902 5903 5905 5906 5907 5907 5908 5908
5771 5771 5772 5773 5773 5774 5775 5776 5777 5779 5780 5780 5782 5785 5788 5790 5792 5794 5797 5799 5801 5803 5805 5808 5811 5813 5813 5813 5813 5813 5815 5817 5820 5823 5824 5826 5830 5833 5835 5837 5838 5840 5841 5843 5845 5847 5849 5851 5853 5855 5857 5858 5859 5861 5863 5865 5867 5869 5870 5872 5873 5875 5877 5879 5880 5882 5883 5884 5885 5886 5887 5888 5890 5891 5892 5893 5894 5895 5896 5897 5899 5900 5901 5903 5903 5903 5904
5768 5768 5769 5770 5770 5771 5772 5773 5774 5775 5776 5777 5779 5780 5782 5784 5787 5789 5792 5793 5795 5797 5800 5802 5805 5807 5808 5809 5810 5810 5810 5812 5815 5817 5818 5820 5823 5826 5829 5830 5832 5834 5836 5837 5839 5841 5843 5845 5847 5849 5851 5853 5855 5857 5858 5860 5862 5863 5865 5866 5868 5869 5871 5873 5875 5876 5878 5879 5880 5881 5882 5883 5885 5886 5887 5889 5890 5891 5892 5893 5894 5895 5897 5898 5899 5899 5899
5766 5766 5766 5767 5767 5768 5768 5769 5770 5772 5773 5774 5775 5775 5776 5779 5781 5784 5786 5788 5789 5792 5794 5796 5799 5800 5802 5804 5806 5807 5807 5809 5811 5812 5813 5816 5818 5820 5822 5824 5826 5828 5830 5831 5833 5835 5836 5838 5840 5842 5845 5847 5850 5852 5853 5854 5856 5857 5859 5861 5862 5864 5865 5867 5869 5870 5872 5873 5874 5875 5877 5878 5880 5881 5883 5884 5885 5886 5888 5888 5889 5890 5892 5893 5894 5895 5895
5763 5763 5763 5763 5763 5764 5765 5766 5767 5768 5769 5769 5770 5771 5772 5773 5775 5777 5780 5782 5784 5786 5788 5790 5792 5795 5797 5798 5800 5800 5801 5804 5807 5808 5809 5811 5812 5813 5814 5816 5819 5821 5823 5825 5827 5829 5830 5832 5834 5836 5838 5840 5843 5845 5847 5849 5850 5851 5853 5855 5856 5858 5859 5861 5863 5864 5865 5867 5868 5870 5871 5873 5874 5876 5877 5879 5880 5881 5882 5883 5884 5885 5886 5888 5889 5890 5891
5760 5760 5760 5760 5760 5760 5761 5762 5763 5764 5765 5765 5765 5766 5767 5768 5769 5771 5774 5776 5778 5780 5781 5783 5785 5789 5792 5794 5794 5792 5792 5794 5798 5801 5802 5804 5806 5806 5808 5810 5811 5814 5816 5818 5820 5822 5824 5826 5828 5829 5831 5833 5836 5838 5840 5842 5844 5846 5847 5849 5850 5852 5854 5855 5857 5858 5859 5861 5862 5864 5865 5867 5868 5870 5871 5873 5874 5876 5877 5878 5879 5880 5881 5883 5884 5886 5887
5756 5756 5756 5756 5756 5756 5757 5757 5758 5759 5760 5760 5760 5761 5762 5763 5764 5765 5767 5770 5772 5772 5774 5776 5778 5782 5785 5785 5786 5786 5784 5784 5788 5792 5794 5796 5798 5800 5802 5804 5805 5807 5809 5812 5814 5816 5817 5819 5821 5822 5824 5827 5829 5831 5834 5836 5838 5840 5841 5843 5844 5846 5847 5849 5851 5852 5854 5855 5857 5858 5859 5861 5862 5864 5865 5867 5868 5870 5871 5873 5874 5875 5876 5877 5878 5880 5881
5752 5751 5751 5751 5751 5751 5752 5752 5753 5754 5755 5755 5755 5756 5757 5757 5758 5759 5761 5763 5764 5766 5768 5769 5772 5775 5776 5776 5777 5778 5777 5777 5780 5783 5785 5788 5791 5794 5796 5798 5799 5801 5803 5805 5807 5809 5810 5812 5814 5815 5817 5819 5822 5824 5827 5829 5831 5833 5835 5837 5838 5839 5841 5843 5844 5846 5848 5849 5851 5852 5854 5855 5856 5858 5859 5861 5862 5863 5865 5866 5868 5869 5870 5871 5872 5873 5875
5748 5747 5746 5745 5745 5745 5745 5746 5747 5748 5749 5750 5750 5751 5751 5752 5752 5754 5755 5756 5758 5759 5761 5762 5764 5767 5768 5769 5769 5770 5771 5773 5774 5776 5778 5781 5784 5786 5789 5791 5793 5795 5796 5798 5799 5801 5803 5805 5807 5808 5810 5812 5814 5817 5820 5822 5824 5826 5828 5830 5831 5833 5834 5836 5837 5839 5841 5843 5845 5846 5847 5849 5850 5851 5853 5854 5855 5857 5858 5859 5861 5862 5864 5865 5866 5867 5868
5743 5742 5741 5741 5740 5739 5739 5740 5741 5742 5743 5744 5745 5745 5746 5746 5746 5747 5748 5750 5751 5752 5754 5755 5757 5759 5760 5762 5763 5764 5765 5767 5768 5770 5772 5775 5777 5780 5782 5785 5786 5788 5789 5790 5792 5793 5795 5797 5799 5802 5804 5806 5808 5810 5812 5815 5817 5819 5820 5822 5824 5826 5828 5829 5831 5833 5835 5836 5838 5839 5841 5842 5844 5845 5846 5847 5849 5850 5851 5852 5853 5855 5856 5858 5859 5860 5861
5738 5737 5736 5736 5735 5734 5734 5734 5734 5735 5736 5737 5738 5739 5740 5740 5740 5740 5741 5742 5744 5745 5747 5748 5750 5751 5753 5755 5756 5757 5759 5760 5762 5764 5767 5769 5772 5774 5776 5778 5778 5780 5781 5783 5784 5786 5788 5790 5792 5795 5797 5799 5801 5803 5805 5807 5809 5811 5813 5815 5816 5818 5820 5822 5824 5826 5827 5829 5831 5832 5833 5835 5836 5838 5839 5840 5842 5843 5845 5846 5847 5847 5848 5850 5851 5853 5854
5733 5732 5731 5731 5730 5729 5729 5729 5728 5728 5729 5731 5731 5732 5733 5733 5734 5734 5735 5736 5737 5739 5740 5741 5743 5744 5746 5748 5749 5750 5752 5754 5756 5758 5760 5763 5766 5768 5769 5770 5771 5773 5774 5776 5777 5779 5781 5783 5785 5788 5790 5792 5794 5796 5798 5800 5802 5804 5805 5807 5809 5810 5812 5814 5816 5818 5820 5821 5823 5824 5826 5827 5829 5830 5832 5833 5834 5836 5837 5839 5840 5841 5841 5842 5843 5845 5846
5728 5727 5726 5726 5725 5724 5724 5724 5723 5723 5723 5723 5724 5725 5726 5727 5728 5728 5729 5730 5730 5732 5733 5734 5735 5737 5739 5741 5742 5744 5745 5747 5749 5751 5754 5757 5758 5760 5762 5763 5764 5765 5767 5768 5770 5772 5774 5776 5778 5780 5782 5784 5787 5789 5791 5793 5795 5796 5798 5799 5801 5803 5804 5806 5808 5809 5811 5813 5815 5816 5818 5819 5821 5822 5824 5826 5827 5828 5829 5830 5832 5834 5835 5835 5836 5837 5838
5723 5722 5721 5721 5720 5720 5719 5719 5718 5718 5717 5717 5717 5718 5720 5721 5722 5722 5723 5723 5724 5725 5726 5727 5728 5730 5732 5733 5735 5737 5739 5741 5743 5745 5748 5750 5751 5752 5754 5755 5756 5758 5760 5761 5763 5765 5767 5769 5771 5773 5775 5777 5779 5782 5784 5785 5787 5789 5790 5791 5793 5795 5796 5798 5800 5801 5803 5804 5806 5808 5809 5811 5812 5814 5816 5817 5819 5821 5822 5823 5824 5825 5826 5827 5828 5829 5830
5719 5718 5717 5717 5716 5715 5715 5714 5714 5713 5713 5712 5712 5712 5713 5714 5715 5716 5716 5717 5718 5719 5720 5720 5721 5723 5725 5726 5727 5729 5732 5734 5737 5739 5741 5743 5744 5745 5746 5748 5750 5751 5753 5754 5756 5758 5760 5762 5763 5765 5767 5769 5771 5773 5775 5777 5779 5780 5782 5783 5785 5786 5788 5790 5792 5793 5795 5796 5798 5799 5800 5802 5803 5805 5806 5808 5809 5811 5813 5814 5816 5817 5817 5817 5818 5819 5821
5715 5714 5713 5712 5711 5710 5710 5709 5709 5708 5708 5707 5707 5706 5707 5707 5708 5709 5710 5710 5711 5712 5713 5714 5715 5716 5717 5719 5720 5722 5725 5728 5730 5732 5733 5735 5736 5738 5739 5741 5743 5744 5746 5747 5748 5750 5752 5754 5756 5758 5760 5762 5764 5765 5767 5768 5770 5772 5773 5775 5777 5778 5780 5782 5783 5785 5786 5788 5789 5790 5791 5792 5794 5795 5796 5798 5799 5801 5803 5804 5806 5808 5809 5809 5808 5809 5810
5710 5709 5708 5708 5707 5706 5705 5704 5703 5703 5702 5702 5702 5701 5701 5701 5702 5702 5703 5703 5704 5705 5706 5707 5708 5710 5711 5712 5714 5716 5718 5720 5722 5723 5724 5726 5728 5731 5733 5734 5736 5737 5738 5739 5741 5743 5745 5747 5749 5751 5752 5754 5756 5758 5759 5761 5762 5763 5765 5767 5769 5770 5772 5773 5775 5776 5778 5779 5780 5781 5782 5784 5785 5786 5787 5789 5790 5791 5793 5794 5796 5797 5799 5800 5800 5800 5800
5706 5705 5704 5703 5702 5701 5700 5699 5698 5697 5697 5696 5696 5696 5695 5695 5696 5696 5696 5696 5697 5699 5699 5700 5702 5703 5704 5706 5707 5709 5710 5712 5714 5715 5717 5719 5722 5724 5726 5727 5727 5728 5730 5732 5734 5736 5738 5739 5741 5743 5745 5747 5748 5750 5751 5752 5754 5755 5757 5759 5761 5763 5764 5765 5767 5768 5769 5770 5771 5772 5774 5775 5776 5777 5778 5780 5781 5782 5783 5785 5786 5788 5789 5790 5791 5791 5791
5701 5700 5699 5698 5697 5696 5695 5694 5693 5692 5691 5691 5690 5690 5690 5690 5690 5690 5690 5690 5691 5692 5693 5694 5696 5697 5698 5699 5700 5701 5703 5705 5707 5708 5710 5712 5714 5717 5718 5719 5719 5720 5722 5725 5727 5729 5730 5732 5734 5736 5738 5740 5741 5742 5743 5744 5746 5747 5749 5751 5752 5754 5756 5757 5758 5759 5760 5762 5763 5764 5765 5766 5767 5768 5770 5771 5772 5773 5774 5775 5777 5778 5779 5780 5780 5781 5781
5696 5695 5694 5693 5692 5691 5690 5688 5688 5687 5686 5685 5685 5684 5684 5684 5684 5684 5684 5684 5685 5685 5686 5687 5688 5689 5690 5692 5693 5695 5696 5698 5701 5702 5704 5705 5708 5709 5710 5711 5712 5713 5715 5717 5719 5721 5723 5725 5727 5730 5732 5733 5734 5735 5736 5737 5739 5740 5742 5743 5744 5746 5747 5748 5749 5750 5751 5753 5754 5755 5756 5757 5759 5760 5761 5762 5763 5764 5765 5766 5767 5768 5769 5770 5770 5770 5770
5690 5689 5688 5687 5686 5685 5683 5682 5681 5680 5679 5679 5678 5678 5677 5677 5677 5678 5678 5678 5679 5679 5680 5680 5681 5682 5683 5685 5686 5688 5690 5691 5694 5696 5698 5699 5700 5702 5703 5704 5705 5706 5708 5710 5712 5714 5716 5718 5720 5722 5724 5725 5727 5728 5729 5731 5732 5733 5735 5736 5738 5739 5739 5740 5740 5741 5743 5744 5745 5746 5747 5749 5750 5751 5752 5753 5754 5754 5755 5756 5757 5758 5759 5760 5760 5760 5760
5684 5683 5681 5680 5679 5678 5676 5675 5674 5673 5672 5672 5671 5671 5670 5670 5670 5671 5671 5672 5672 5673 5673 5674 5675 5676 5677 5678 5679 5682 5683 5684 5685 5688 5690 5691 5692 5694 5696 5698 5699 5699 5700 5702 5704 5706 5708 5710 5712 5714 5716 5717 5719 5721 5722 5724 5725 5727 5728 5730 5731 5731 5732 5732 5733 5734 5735 5736 5737 5738 5738 5740 5741 5742 5743 5743 5744 5745 5746 5746 5747 5747 5748 5749 5749 5749 5749
5678 5676 5675 5673 5672 5670 5669 5668 5667 5666 5665 5664 5664 5663 5662 5662 5662 5663 5663 5664 5665 5665 5666 5667 5668 5669 5670 5671 5672 5674 5676 5677 5678 5679 5681 5683 5684 5686 5688 5690 5692 5693 5693 5694 5696 5698 5700 5703 5705 5707 5708 5709 5711 5713 5715 5717 5718 5720 5722 5723 5723 5724 5724 5725 5725 5727 5728 5728 5729 5730 5730 5731 5732 5733 5733 5734 5735 5735 5735 5736 5736 5737 5737 5738 5738 5738 5738
5671 5669 5667 5666 5664 5662 5661 5659 5658 5658 5657 5656 5656 5655 5655 5654 5654 5654 5655 5656 5657 5658 5658 5659 5660 5662 5663 5664 5665 5666 5668 5670 5671 5672 5674 5676 5677 5679 5680 5682 5685 5686 5687 5687 5689 5691 5694 5696 5697 5699 5700 5702 5703 5705 5707 5708 5710 5712 5714 5715 5715 5716 5716 5717 5718 5719 5720 5720 5721 5722 5722 5723 5724 5724 5725 5725 5725 5725 5725 5725 5726 5726 5726 5726 5726 5726 5727
5664 5662 5660 5658 5656 5655 5653 5651 5650 5649 5648 5648 5647 5647 5647 5646 5646 5646 5646 5647 5648 5649 5650 5651 5652 5654 5655 5657 5658 5660 5661 5663 5664 5666 5667 5669 5670 5671 5673 5675 5678 5679 5680 5680 5682 5685 5687 5688 5690 5691 5693 5695 5696 5698 5699 5700 5703 5705 5707 5707 5707 5708 5709 5710 5710 5711 5712 5712 5713 5713 5714 5715 5715 5715 5715 5715 5715 5715 5715 5715 5715 5715 5715 5715 5714 5714 5714
5656 5654 5652 5650 5648 5647 5645 5643 5642 5640 5639 5639 5638 5638 5638 5638 5638 5638 5638 5639 5639 5640 5641 5643 5644 5646 5647 5649 5651 5653 5654 5656 5657 5659 5660 5662 5663 5664 5667 5670 5671 5672 5672 5674 5676 5678 5679 5681 5682 5684 5686 5688 5689 5690 5691 5693 5695 5697 5698 5699 5699 5700 5701 5702 5703 5703 5703 5704 5704 5705 5705 5706 5706 5706 5706 5706 5705 5705 5705 5704 5704 5704 5703 5703 5702 5702 5702
5649 5647 5644 5642 5640 5638 5637 5635 5634 5632 5631 5630 5629 5628 5628 5628 5628 5628 5629 5630 5630 5630 5632 5634 5636 5638 5640 5641 5643 5645 5647 5648 5650 5652 5653 5655 5657 5659 5661 5663 5664 5664 5665 5668 5669 5670 5672 5674 5676 5678 5679 5681 5682 5683 5685 5687 5688 5690 5690 5691 5692 5693 5694 5694 5695 5695 5696 5696 5697 5697 5697 5697 5697 5697 5697 5696 5696 5695 5695 5694 5693 5692 5692 5691 5691 5690 5689
5642 5640 5638 5635 5633 5631 5629 5627 5626 5625 5623 5621 5620 5619 5618 5618 5617 5618 5619 5620 5621 5621 5623 5625 5627 5629 5631 5633 5636 5638 5639 5641 5643 5645 5647 5649 5651 5653 5655 5656 5656 5656 5658 5660 5662 5663 5665 5667 5669 5671 5673 5674 5676 5677 5679 5681 5681 5682 5683 5684 5685 5686 5687 5687 5688 5688 5688 5689 5689 5689 5689 5689 5689 5688 5688 5687 5687 5686 5685 5684 5683 5681 5681 5680 5679 5678 5677
5635 5633 5631 5628 5626 5624 5622 5620 5618 5617 5615 5613 5612 5610 5609 5608 5608 5608 5608 5609 5610 5612 5614 5616 5618 5620 5622 5625 5628 5630 5633 5635 5637 5639 5641 5643 5645 5647 5648 5649 5649 5650 5651 5653 5656 5658 5659 5661 5663 5665 5667 5668 5670 5671 5673 5674 5675 5675 5677 5678 5678 5679 5680 5680 5680 5681 5681 5681 5681 5681 5681 5681 5680 5680 5679 5678 5677 5676 5675 5674 5672 5671 5670 5669 5668 5667 5666
5628 5626 5624 5622 5619 5617 5615 5613 5611 5609 5608 5606 5604 5603 5601 5600 5599 5599 5599 5599 5600 5602 5604 5607 5609 5612 5614 5617 5620 5623 5626 5628 5631 5633 5635 5637 5639 5641 5641 5642 5644 5645 5646 5647 5650 5652 5654 5656 5658 5660 5661 5662 5664 5665 5666 5667 5668 5669 5670 5671 5671 5672 5672 5673 5673 5673 5674 5674 5673 5673 5673 5672 5672 5671 5670 5669 5668 5667 5665 5664 5662 5661 5659 5658 5657 5656 5655
5622 5620 5618 5615 5613 5610 5608 5606 5604 5602 5601 5599 5597 5595 5594 5592 5591 5590 5589 5590 5591 5593 5595 5598 5601 5604 5607 5610 5613 5617 5620 5622 5625 5627 5630 5633 5634 5635 5635 5637 5639 5640 5641 5643 5645 5647 5649 5651 5652 5654 5655 5657 5658 5659 5659 5660 5662 5663 5663 5664 5664 5665 5665 5666 5666 5666 5666 5666 5666 5665 5665 5664 5663 5663 5662 5660 5659 5658 5656 5654 5653 5651 5649 5647 5646 5645 5644
5617 5615 5612 5610 5607 5604 5602 5600 5598 5597 5595 5592 5590 5588 5587 5585 5584 5583 5582 5582 5583 5584 5587 5590 5594 5598 5601 5605 5608 5611 5614 5616 5618 5621 5624 5626 5628 5628 5630 5632 5633 5635 5636 5638 5641 5642 5644 5645 5647 5648 5650 5651 5652 5653 5654 5654 5655 5656 5657 5657 5657 5658 5658 5659 5659 5659 5659 5659 5658 5658 5657 5656 5656 5654 5653 5652 5650 5649 5647 5645 5643 5641 5639 5637 5636 5635 5633
5612 5610 5607 5604 5602 5599 5597 5596 5594 5592 5589 5587 5585 5583 5581 5579 5577 5576 5576 5576 5577 5579 5582 5585 5588 5592 5596 5600 5604 5607 5609 5610 5613 5615 5618 5620 5622 5623 5625 5626 5628 5630 5632 5634 5635 5637 5638 5640 5641 5642 5643 5645 5645 5646 5647 5648 5649 5649 5650 5650 5651 5651 5652 5652 5652 5652 5652 5652 5652 5651 5650 5649 5648 5647 5645 5643 5642 5640 5638 5636 5634 5632 5630 5628 5627 5626 5625
5608 5605 5602 5600 5597 5596 5594 5592 5590 5588 5585 5583 5581 5579 5577 5575 5573 5572 5572 5573 5575 5577 5579 5582 5585 5589 5592 5596 5600 5603 5604 5606 5608 5611 5613 5615 5617 5619 5621 5622 5624 5625 5627 5628 5629 5631 5632 5634 5635 5636 5637 5638 5639 5640 5641 5642 5642 5643 5643 5644 5644 5645 5645 5645 5646 5646 5646 5645 5645 5644 5643 5641 5640 5639 5637 5635 5634 5632 5629 5627 5625 5623 5622 5620 5619 5617 5616
5604 5601 5598 5596 5594 5593 5591 5589 5587 5585 5583 5581 5579 5577 5575 5573 5572 5572 5573 5574 5575 5576 5578 5580 5583 5587 5590 5593 5596 5599 5601 5602 5605 5607 5609 5611 5613 5615 5616 5618 5619 5620 5621 5622 5623 5625 5626 5627 5628 5630 5631 5632 5633 5634 5635 5636 5637 5637 5637 5638 5638 5639 5639 5639 5639 5639 5638 5638 5637 5636 5635 5633 5632 5631 5629 5627 5625 5623 5621 5619 5617 5616 5614 5612 5611 5609 5607
5601 5598 5595 5593 5591 5590 5588 5587 5585 5583 5582 5580 5579 5577 5576 5575 5574 5574 5575 5575 5576 5577 5579 5580 5582 5585 5588 5591 5593 5595 5598 5600 5602 5603 5604 5606 5608 5609 5611 5612 5614 5615 5616 5617 5618 5619 5620 5622 5623 5624 5625 5626 5628 5629 5629 5630 5631 5631 5631 5632 5632 5632 5632 5632 5632 5632 5631 5630 5629 5628 5627 5625 5624 5623 5621 5619 5617 5615 5613 5611 5609 5608 5606 5604 5602 5601 5599
5598 5595 5592 5591 5589 5588 5587 5585 5583 5582 5581 5580 5579 5577 5576 5576 5575 5575 5575 5576 5576 5577 5579 5581 5582 5583 5585 5588 5590 5592 5593 5595 5596 5597 5598 5600 5602 5604 5606 5607 5609 5610 5611 5612 5613 5614 5616 5617 5618 5619 5620 5621 5622 5623 5623 5624 5624 5625 5625 5626 5626 5626 5626 5625 5625 5624 5624 5623 5622 5620 5619 5618 5616 5615 5613 5612 5609 5607 5606 5604 5602 5600 5598 5596 5594 5593 5591
5595 5592 5590 5588 5587 5586 5585 5583 5582 5581 5581 5580 5579 5578 5577 5577 5576 5576 5576 5576 5577 5577 5579 5580 5581 5583 5584 5586 5587 5588 5589 5590 5591 5592 5594 5595 5597 5599 5601 5603 5604 5606 5607 5608 5609 5610 5611 5612 5613 5614 5615 5616 5617 5617 5618 5618 5619 5619 5619 5619 5619 5619 5619 5619 5618 5617 5616 5615 5614 5613 5612 5611 5609 5608 5606 5604 5602 5601 5599 5597 5595 5593 5591 5589 5587 5585 5584
5592 5590 5588 5587 5586 5585 5583 5582 5581 5581 5580 5580 5579 5578 5577 5577 5577 5577 5577 5577 5577 5578 5579 5580 5581 5582 5583 5583 5584 5585 5586 5587 5588 5590 5591 5593 5594 5596 5598 5599 5601 5602 5603 5604 5605 5606 5607 5608 5609 5609 5610 5611 5611 5612 5612 5612 5613 5613 5613 5613 5613 5613 5612 5611 5611 5610 5609 5607 5607 5606 5605 5604 5603 5601 5599 5597 5596 5594 5592 5590 5588 5586 5584 5582 5580 5578 5577